Weather History for Scappoose, OR

Change the Weather History Date:

Saturday, November 16, 2013

  Actual Average Record
Temperature  
Mean Temperature 44 °F -  
Max Temperature 49 °F - 57 °F (2002)
Min Temperature 41 °F - 19 °F (2014)
Degree Days  
Heating Degree Days 20    
Month to date heating degree days 281  
Since 1 July heating degree days 851  
Cooling Degree Days 0    
Month to date cooling degree days 0  
Year to date cooling degree days 396  
Moisture  
Dew Point 39 °F    
Average Humidity 82    
Maximum Humidity 93    
Minimum Humidity 71    
Precipitation  
Precipitation 0.09 in - 0.75 in (2003)
Month to date precipitation 2.42  
Year to date precipitation 24.93  
Sea Level Pressure  
Sea Level Pressure 29.69 in    
Wind  
Wind Speed 4 mph (SW)    
Max Wind Speed 17 mph    
Max Gust Speed 25 mph    
Visibility 9 miles    
Events Rain    
T = Trace of Precipitation, MM = Missing Value Source: NWS Daily Summary

Daily Weather History Graph

Daily Weather History Graph

Search for Another Location

Airport:

Trip Planner

Search our weather history database for the weather conditions in past years. The results will help you decide how hot, cold, wet, or windy it might be!

Date:

Astronomy

Nov. 16, 2013 Rise Set
Actual Time 7:13 AM PST 4:38 PM PST
Civil Twilight 6:40 AM PST 5:11 PM PST
Nautical Twilight 6:04 AM PST 5:47 PM PST
Astronomical Twilight 5:29 AM PST 6:22 PM PST
Moon 4:19 PM PST (11/16) 6:12 AM PST (11/16)
Length of Visible Light 10h 30m
Length of Day
9h 25m
Waxing Gibbous, 99% of the Moon is Illuminated
Nov 16
Waxing Gibbous
Nov 17
Full
Nov 25
Last Quarter
Dec 2
New
Dec 9
First Quarter

Hourly Weather History & Observations

Time (PST) Temp. Windchill Dew Point Humidity Pressure Visibility Wind Dir Wind Speed Gust Speed Precip Events Conditions
12:46 AM 48.0 °F - 41.0 °F 77% 29.53 in 10.0 mi WSW 4.6 mph - 0.00 in   Mostly Cloudy
12:53 AM 48.0 °F - 39.9 °F 74% 29.53 in 10.0 mi Variable 4.6 mph - 0.00 in   Mostly Cloudy
1:53 AM 46.9 °F - 39.9 °F 77% 29.55 in 10.0 mi Variable 6.9 mph - 0.00 in Rain Light Rain
2:53 AM 45.0 °F - 37.0 °F 74% 29.56 in 10.0 mi Calm Calm - 0.01 in Rain Light Rain
3:53 AM 46.0 °F 44.8 °F 37.0 °F 71% 29.57 in 10.0 mi Variable 3.5 mph - 0.00 in Rain Light Rain
4:53 AM 45.0 °F 42.6 °F 37.0 °F 74% 29.59 in 10.0 mi Variable 4.6 mph - 0.01 in   Mostly Cloudy
5:50 AM 44.6 °F 42.2 °F 37.4 °F 76% 29.60 in 10.0 mi South 4.6 mph - N/A   Overcast
5:53 AM 44.1 °F 40.8 °F 37.9 °F 79% 29.60 in 10.0 mi South 5.8 mph - 0.00 in Rain Light Rain
6:18 AM 44.1 °F 40.1 °F 37.0 °F 76% 29.61 in 10.0 mi WSW 6.9 mph - 0.00 in Rain Light Rain
6:53 AM 45.0 °F - 37.0 °F 74% 29.63 in 10.0 mi Calm Calm - 0.00 in   Mostly Cloudy
7:28 AM 43.0 °F - 37.9 °F 82% 29.64 in 10.0 mi Calm Calm - 0.00 in Rain Light Rain
7:53 AM 41.0 °F - 37.9 °F 89% 29.65 in 10.0 mi Calm Calm - 0.00 in   Overcast
8:53 AM 46.9 °F - 39.0 °F 74% 29.67 in 10.0 mi Calm Calm - 0.00 in   Scattered Clouds
9:53 AM 46.0 °F 43.1 °F 39.0 °F 76% 29.70 in 9.0 mi South 5.8 mph - 0.00 in Rain Light Rain
10:53 AM 46.9 °F - 39.9 °F 77% 29.70 in 10.0 mi South 8.1 mph - 0.00 in   Overcast
11:53 AM 48.0 °F - 42.1 °F 80% 29.71 in 10.0 mi SE 9.2 mph - N/A   Mostly Cloudy
12:34 PM 46.0 °F 39.3 °F 39.0 °F 76% 29.72 in 1.8 mi West 16.1 mph 25.3 mph 0.05 in Rain Rain
12:41 PM 45.0 °F 38.5 °F 37.9 °F 76% 29.71 in 2.5 mi WSW 13.8 mph 24.2 mph 0.06 in Rain Light Rain
12:48 PM 44.6 °F 38.8 °F 37.4 °F 76% 29.71 in 5.0 mi SW 11.5 mph - 0.07 in Rain Light Rain
12:53 PM 45.0 °F 39.3 °F 39.0 °F 80% 29.71 in 6.0 mi WSW 11.5 mph 19.6 mph 0.07 in Rain Light Rain
1:53 PM 48.0 °F - 42.1 °F 80% 29.72 in 10.0 mi SW 3.5 mph - 0.00 in   Overcast
2:53 PM 48.0 °F - 39.9 °F 74% 29.73 in 10.0 mi SW 4.6 mph - N/A   Mostly Cloudy
3:53 PM 46.9 °F - 39.9 °F 77% 29.75 in 10.0 mi SW 6.9 mph - N/A   Overcast
4:53 PM 46.9 °F - 39.0 °F 74% 29.76 in 10.0 mi Calm Calm - 0.00 in   Overcast
5:53 PM 45.0 °F - 39.0 °F 80% 29.77 in 10.0 mi Calm Calm - 0.00 in   Overcast
6:53 PM 45.0 °F 42.6 °F 39.0 °F 80% 29.79 in 10.0 mi Variable 4.6 mph - N/A   Overcast
7:53 PM 46.0 °F 41.0 °F 39.0 °F 76% 29.80 in 10.0 mi SW 10.4 mph - 0.00 in Rain Light Rain
8:53 PM 44.1 °F - 39.0 °F 82% 29.81 in 10.0 mi Calm Calm - 0.00 in   Overcast
9:53 PM 45.0 °F 42.6 °F 39.0 °F 80% 29.83 in 10.0 mi East 4.6 mph - N/A   Overcast
10:53 PM 44.1 °F 42.5 °F 39.9 °F 85% 29.84 in 10.0 mi South 3.5 mph - N/A   Overcast
11:53 PM 42.1 °F 40.2 °F 39.0 °F 89% 29.85 in 10.0 mi West 3.5 mph - N/A   Overcast